Simultaneous Nadir Overpasses (SNOs) Predictions

Prediction of SNOs between METOP-C and LANDSAT-8 Satellite Orbit:

Table of predicted SNOs for the next 14.0 days since TLE Epoch: 7/8/2023
Index Date (METOP-C) Time (METOP-C) Lat,Lon (METOP-C) SZA (METOP-C ) Date (LANDSAT-8) Time (LANDSAT-8) Lat,Lon (LANDSAT-8) SZA (LANDSAT-8 ) Distance(km) Time Diff (sec)
1 07/09/2023 21:00:14 81.18, -94.37 60.97 07/09/2023 21:00:40 81.18, -94.26 60.99 1.92 26
2 07/09/2023 21:50:54 -81.20, 73.70 118.94 07/09/2023 21:50:06 -81.20, 73.67 118.97 0.79 48
3 07/12/2023 16:34:34 81.19, -27.53 61.38 07/12/2023 16:34:55 81.20, -27.52 61.39 0.57 21
4 07/12/2023 17:25:14 -81.22, 140.56 118.52 07/12/2023 17:24:21 -81.22, 140.44 118.56 2.11 53
5 07/15/2023 12:08:55 81.18, 38.49 61.74 07/15/2023 12:09:10 81.18, 38.68 61.77 3.26 15
6 07/15/2023 12:59:35 -81.20,-153.41 118.16 07/15/2023 12:58:36 -81.20,-153.34 118.18 1.23 59
7 07/18/2023 07:43:14 81.20, 105.60 62.29 07/18/2023 07:43:24 81.20, 105.45 62.28 2.48 10
8 07/18/2023 08:33:56 -81.20, -87.07 117.71 07/18/2023 08:32:51 -81.20, -86.92 117.72 2.60 65
9 07/21/2023 03:17:36 81.19, 171.49 62.73 07/21/2023 03:17:39 81.19, 171.67 62.75 3.09 3



Historial Predications of SNOs between METOP-C and LANDSAT-8
